Location: Peebles
(55.6412°N, 3.1714°W)
Time: 11:12:34
(UTC+01:00)

FENGYUN 1C DEB - Pass Details

Date: 06 July 2022
Orbit: 580 x 1160 km, 99.3° (Epoch: 14 August)

Event Time Altitude Azimuth Distance (km) Brightness Sun altitude
Exits shadow 00:09:17 11° 145° (SE) 2,504 ? -10.3°
Maximum altitude 00:14:52 67° 65° (ENE) 1,096 ? -10.5°
Drops below altitude 10° 00:21:34 10° 345° (NNW) 2,970 ? -10.7°
Sets 00:24:17 0° 343° (NNW) 3,982 ? -10.8°
